sat.trackr.live / text

‹ back to catalog

STARLINK-5412

NORAD 54806 · 2022-175BA

PAYLOAD ACTIVE UNKNOWN

§ Identity

Operator
Country
US
Launch date
2022-12-17
Launch site
AFETR
Launch vehicle
Mass (kg)
RCS (m²)

Purposes: comms

External: N2YO · Heavens-Above · Gunter

§ Orbital elements

Epoch: 2026-05-25T04:27:53.254656Z

Period
95.44 min
Inclination
53.2117°
Eccentricity
0.0001337
Mean motion
15.08844363 rev/d
Perigee alt
538.8 km
Apogee alt
540.7 km
Semi-major
6,917.9 km
B*
8.7800e-5
RAAN
45.3062°
Arg perigee
58.9054°
Mean anomaly
301.2069°
Rev number
19,168

§ Raw data

STARLINK-54121 54806U 22175BA  26145.18603304  .00001110  00000+0  87800-4 0  99922 54806  53.2117  45.3062 0001337  58.9054 301.2069 15.08844363191687

JSON: /api/v1/satellites/54806 · /tle

For live sub-satellite position, see the globe view (requires WebGL).

§ Visibility from observer

Set your observer location to see the next 7 days of passes ≥ 10°. The values pass through the URL so the page stays shareable.

No JS? Fill the form by hand. The geolocation button needs JavaScript.